Simultaneous Nadir Overpasses (SNOs) Predictions

Prediction of SNOs between METOP-B and NOAA-19 Satellite Orbit:

Table of predicted SNOs for the next 14.0 days since TLE Epoch: 1/26/2019
Index Date (METOP-B) Time (METOP-B) Lat,Lon (METOP-B) SZA (METOP-B ) Date (NOAA-19) Time (NOAA-19) Lat,Lon (NOAA-19) SZA (NOAA-19 ) Distance(km) Time Diff (sec)
1 02/01/2019 17:32:31 -79.02, 110.96 83.83 02/01/2019 17:31:18 -79.07, 109.95 83.83 21.86 73
2 02/01/2019 18:23:12 78.98, -82.00 96.11 02/01/2019 18:22:12 78.96, -81.95 96.09 2.12 60
3 02/01/2019 19:13:54 -78.97, 85.28 83.91 02/01/2019 19:13:16 -78.97, 85.22 83.92 1.37 38
4 02/01/2019 20:04:34 78.96,-107.43 96.08 02/01/2019 20:04:13 78.96,-107.46 96.07 0.80 21
5 02/01/2019 20:55:16 -78.96, 59.85 83.95 02/01/2019 20:55:16 -78.94, 59.96 83.96 3.13 0
6 02/01/2019 21:45:56 78.95,-132.86 96.04 02/01/2019 21:46:14 78.96,-132.98 96.05 3.02 18
7 02/01/2019 22:36:38 -78.94, 34.42 83.98 02/01/2019 22:37:17 -78.94, 34.45 83.98 0.74 39
8 02/01/2019 23:27:18 78.94,-158.29 96.00 02/01/2019 23:28:14 78.93,-158.24 96.01 1.15 56




NCC Satellite Simultaneous Nadir Overpasses (SNOs) Prediction Service
